Total_Precipitation_Accumulation
0.75 0.70 0.66 0.63 0.60 0.59 0.56 0.51 0.46 0.41 0.35 0.33 0.32 0.29 0.28 0.26 0.26 0.24 0.20 0.20 0.20 0.24 0.37 0.58 0.84 1.08 1.28 1.44 1.55 1.45 1.39 1.25 0.99 0.84 0.81 0.89 0.94 1.00 1.01 1.06 1.06 0.96 0.93
0.75 0.73 0.70 0.69 0.63 0.58 0.56 0.53 0.49 0.44 0.37 0.33 0.29 0.27 0.26 0.25 0.26 0.27 0.25 0.26 0.24 0.23 0.30 0.44 0.64 0.95 1.21 1.38 1.57 1.69 1.55 1.52 1.36 1.08 0.91 0.88 0.91 0.96 0.99 1.06 1.12 1.10 1.02
0.71 0.75 0.76 0.72 0.66 0.59 0.56 0.54 0.54 0.53 0.47 0.40 0.34 0.28 0.25 0.23 0.22 0.22 0.25 0.28 0.29 0.28 0.29 0.37 0.47 0.70 1.02 1.30 1.49 1.73 1.77 1.64 1.65 1.52 1.26 1.04 0.98 0.97 1.01 1.07 1.13 1.20 1.15
0.73 0.77 0.80 0.76 0.70 0.66 0.62 0.58 0.54 0.53 0.49 0.45 0.41 0.37 0.32 0.27 0.22 0.20 0.20 0.24 0.30 0.33 0.32 0.33 0.39 0.52 0.81 1.14 1.45 1.69 2.08 1.95 1.83 1.88 1.82 1.49 1.20 1.10 1.11 1.16 1.20 1.26 1.29
0.73 0.77 0.82 0.82 0.79 0.77 0.72 0.67 0.60 0.53 0.48 0.44 0.41 0.38 0.34 0.31 0.29 0.27 0.23 0.21 0.23 0.30 0.35 0.37 0.39 0.41 0.57 0.89 1.23 1.56 2.06 2.40 2.22 2.14 2.20 2.10 1.72 1.42 1.31 1.33 1.37 1.39 1.45
0.74 0.72 0.76 0.80 0.83 0.81 0.76 0.70 0.65 0.56 0.49 0.45 0.44 0.41 0.34 0.29 0.26 0.25 0.23 0.22 0.20 0.22 0.32 0.39 0.42 0.39 0.42 0.57 0.87 1.30 1.75 2.24 2.50 2.40 2.36 2.41 2.27 1.96 1.71 1.59 1.56 1.61 1.64
0.82 0.78 0.75 0.75 0.79 0.79 0.72 0.65 0.64 0.62 0.58 0.56 0.59 0.54 0.46 0.38 0.32 0.28 0.24 0.21 0.19 0.18 0.22 0.34 0.43 0.42 0.38 0.41 0.53 0.79 1.28 1.89 2.43 2.68 2.67 2.58 2.56 2.37 2.10 1.88 1.74 1.77 1.85
0.86 0.84 0.77 0.77 0.76 0.75 0.72 0.66 0.62 0.62 0.61 0.61 0.64 0.67 0.59 0.53 0.43 0.33 0.30 0.26 0.22 0.21 0.23 0.27 0.38 0.44 0.43 0.39 0.36 0.47 0.74 1.31 1.98 2.54 2.83 2.89 2.86 2.81 2.55 2.26 2.03 1.98 2.07
0.85 0.89 0.84 0.77 0.77 0.77 0.74 0.67 0.61 0.60 0.60 0.56 0.56 0.75 0.78 0.57 0.38 0.30 0.28 0.28 0.26 0.25 0.25 0.27 0.33 0.40 0.46 0.46 0.43 0.44 0.51 0.82 1.42 2.13 2.66 2.94 3.06 3.19 3.11 2.72 2.46 2.31 2.32
0.84 0.83 0.86 0.84 0.79 0.77 0.73 0.69 0.64 0.61 0.63 0.63 0.58 0.58 0.63 0.63 0.61 0.42 0.27 0.26 0.29 0.30 0.29 0.28 0.31 0.36 0.43 0.50 0.52 0.55 0.56 0.63 1.00 1.55 2.22 2.82 3.19 3.48 3.67 3.29 2.84 2.64 2.58
0.83 0.83 0.82 0.85 0.83 0.78 0.73 0.73 0.73 0.71 0.70 0.69 0.64 0.57 0.54 0.50 0.51 0.61 0.42 0.29 0.31 0.31 0.33 0.35 0.35 0.38 0.42 0.49 0.54 0.58 0.66 0.68 0.88 1.24 1.71 2.41 3.04 3.63 4.14 4.00 3.30 2.81 2.63
0.86 0.82 0.81 0.81 0.81 0.78 0.71 0.69 0.71 0.75 0.76 0.72 0.66 0.61 0.62 0.61 0.53 0.58 0.53 0.37 0.35 0.33 0.35 0.40 0.44 0.45 0.45 0.49 0.53 0.64 0.70 0.75 0.84 1.04 1.31 1.80 2.45 3.07 3.88 4.26 3.76 3.10 2.70
0.92 0.85 0.81 0.78 0.77 0.76 0.75 0.73 0.73 0.72 0.73 0.77 0.75 0.67 0.61 0.57 0.55 0.62 0.67 0.56 0.49 0.41 0.40 0.42 0.44 0.50 0.55 0.56 0.56 0.62 0.65 0.73 0.83 0.96 1.09 1.28 1.70 2.41 3.23 4.11 4.36 3.71 3.13
0.86 0.87 0.87 0.82 0.74 0.71 0.75 0.79 0.78 0.76 0.75 0.77 0.75 0.72 0.67 0.57 0.59 0.67 0.76 0.86 0.82 0.57 0.48 0.44 0.41 0.45 0.53 0.61 0.63 0.66 0.61 0.71 0.81 0.91 1.00 1.10 1.24 1.68 2.48 3.44 4.38 4.45 3.78
0.87 0.93 0.93 0.92 0.86 0.80 0.76 0.77 0.79 0.78 0.82 0.81 0.80 0.78 0.78 0.70 0.66 0.67 0.72 0.88 1.14 0.99 0.59 0.43 0.42 0.45 0.52 0.61 0.70 0.68 0.66 0.71 0.78 0.89 1.02 1.09 1.15 1.35 1.73 2.37 3.26 4.21 4.41
0.84 0.96 1.00 0.94 0.95 0.92 0.87 0.82 0.79 0.77 0.83 0.85 0.86 0.87 0.85 0.84 0.82 0.77 0.77 0.82 0.97 1.10 0.82 0.42 0.39 0.43 0.56 0.66 0.78 0.78 0.77 0.84 0.83 0.91 0.99 1.04 1.07 1.18 1.39 1.75 2.31 3.19 4.06
0.79 0.87 0.99 1.01 0.99 0.99 0.96 0.94 0.90 0.88 0.88 0.88 0.92 0.98 0.96 0.94 1.00 0.96 0.90 0.86 0.87 0.97 0.98 0.51 0.39 0.42 0.62 0.82 0.87 0.88 0.92 0.87 0.81 0.84 0.91 0.97 1.03 1.11 1.29 1.52 1.84 2.38 3.22
0.80 0.83 0.93 1.06 1.09 1.07 1.03 1.01 1.00 1.03 1.10 1.05 0.99 1.01 1.04 1.05 1.09 1.07 1.06 0.97 0.86 0.81 0.91 0.75 0.51 0.53 0.66 0.83 0.89 0.92 0.98 0.96 0.88 0.91 0.93 0.99 1.05 1.15 1.30 1.45 1.65 1.93 2.54
0.85 0.85 0.93 1.08 1.16 1.18 1.14 1.06 1.05 1.09 1.19 1.27 1.24 1.21 1.16 1.15 1.16 1.11 1.12 1.08 0.97 0.87 0.85 0.86 0.69 0.62 0.69 0.80 0.93 1.00 1.04 1.04 1.03 1.06 1.01 1.03 1.11 1.17 1.27 1.39 1.51 1.71 1.99
0.88 0.89 0.90 0.98 1.11 1.22 1.31 1.31 1.31 1.25 1.25 1.29 1.32 1.33 1.31 1.31 1.27 1.23 1.23 1.18 1.15 1.14 1.08 1.07 0.96 0.81 0.79 0.82 1.00 1.18 1.25 1.12 1.11 1.10 1.10 1.10 1.18 1.22 1.27 1.26 1.22 1.39 1.65
0.89 0.89 0.89 0.88 0.96 1.24 1.60 1.60 1.52 1.45 1.32 1.22 1.16 1.16 1.23 1.38 1.45 1.52 1.57 1.47 1.43 1.52 1.49 1.42 1.24 1.07 0.97 1.02 1.13 1.23 1.43 1.36 1.25 1.17 1.18 1.11 1.14 1.14 1.13 1.16 1.17 1.30 1.51
0.98 0.95 0.91 0.88 0.91 1.12 1.56 1.64 1.38 1.17 1.05 1.02 1.01 0.94 0.95 1.15 1.26 1.39 1.54 1.57 1.63 1.78 1.86 1.79 1.55 1.31 1.07 1.02 1.13 1.36 1.56 1.73 1.64 1.28 1.28 1.29 1.24 1.27 1.17 1.11 1.16 1.22 1.38
1.01 1.00 0.93 0.87 0.83 0.90 1.30 1.42 1.24 0.97 0.84 0.81 0.83 0.83 0.83 0.90 1.05 1.05 1.21 1.32 1.39 1.56 1.78 1.88 1.83 1.43 1.17 1.07 1.32 1.53 1.59 1.71 1.62 1.41 1.48 1.67 1.48 1.39 1.28 1.23 1.22 1.14 1.22
1.08 1.03 0.96 0.89 0.85 0.80 1.14 1.34 1.22 0.90 0.76 0.70 0.70 0.69 0.69 0.73 0.88 1.05 1.17 1.19 1.14 1.24 1.51 1.71 1.85 1.67 1.45 1.38 1.61 1.91 2.04 2.06 1.87 1.68 1.64 1.95 1.73 1.57 1.47 1.35 1.26 1.11 1.12
1.02 1.01 0.96 0.88 0.86 0.83 1.03 1.37 1.35 0.98 0.81 0.70 0.68 0.68 0.64 0.63 0.88 1.12 1.14 1.10 1.00 1.03 1.21 1.49 1.71 1.80 1.85 1.95 2.10 2.39 2.58 2.55 2.39 2.04 1.80 1.95 1.96 1.84 1.70 1.59 1.38 1.17 1.06
0.97 0.98 0.98 0.90 0.85 0.82 0.96 1.35 1.54 1.11 0.91 0.79 0.72 0.69 0.78 0.81 0.98 1.07 1.02 1.08 1.13 1.02 0.99 1.07 1.18 1.30 1.40 1.55 1.87 2.13 2.37 2.49 2.46 2.41 1.98 1.90 2.04 2.10 2.29 1.92 1.50 1.15 1.00